Hourly Weather Aadorf

Today, 24 October, Saturday

Time Temperature Precipitation Wind Pressure Humidity
00:00 +11°C° 0 mm 1 mps 709 mmHg 93%
01:00 +11°C° 0 mm 1 mps 709 mmHg 92%
02:00 +11°C° 0 mm 1 mps 709 mmHg 92%
03:00 +11°C° 0 mm 1 mps 709 mmHg 92%
04:00 +11°C° 0 mm 1 mps 709 mmHg 91%
05:00 +11°C° 0.2 mm 1 mps 709 mmHg 93%
06:00 +10°C° 0.2 mm 1 mps 710 mmHg 94%
07:00 +10°C° 0.2 mm 1 mps 710 mmHg 96%
08:00 +11°C° 0.2 mm 1 mps 710 mmHg 94%
09:00 +10°C° 0.2 mm 2 mps 710 mmHg 91%
10:00 +12°C° 0.2 mm 2 mps 710 mmHg 89%
11:00 +13°C° 0.1 mm 2 mps 710 mmHg 84%
12:00 +14°C° 0.1 mm 2 mps 710 mmHg 79%
13:00 +14°C° 0.1 mm 1 mps 710 mmHg 74%
14:00 +14°C° 0 mm 1 mps 710 mmHg 75%
15:00 +14°C° 0 mm 1 mps 709 mmHg 77%
16:00 +14°C° 0 mm 1 mps 709 mmHg 78%
17:00 +12°C° 0 mm 1 mps 709 mmHg 83%
18:00 +11°C° 0 mm 1 mps 709 mmHg 88%
19:00 +9°C° 0 mm 1 mps 709 mmHg 92%
20:00 +9°C° 0 mm 1 mps 709 mmHg 93%
21:00 +9°C° 0 mm 1 mps 708 mmHg 93%
22:00 +8°C° 0 mm 1 mps 708 mmHg 93%
23:00 +8°C° 0 mm 1 mps 708 mmHg 93%

Tomorrow, 25 October, Sunday

Time Temperature Precipitation Wind Pressure Humidity
00:00 +7°C° 0 mm 0 mps 707 mmHg 93%
01:00 +6°C° 0 mm 0 mps 707 mmHg 93%
02:00 +6°C° 0 mm 0 mps 707 mmHg 92%
03:00 +6°C° 0 mm 0 mps 706 mmHg 92%
04:00 +6°C° 0 mm 0 mps 706 mmHg 91%
05:00 +5°C° 0 mm 0 mps 706 mmHg 90%
06:00 +5°C° 0 mm 0 mps 706 mmHg 90%
07:00 +5°C° 0 mm 0 mps 706 mmHg 89%
08:00 +7°C° 0 mm 0 mps 705 mmHg 84%
09:00 +9°C° 0 mm 0 mps 705 mmHg 78%
10:00 +11°C° 0 mm 0 mps 705 mmHg 73%
11:00 +13°C° 0 mm 1 mps 705 mmHg 67%
12:00 +15°C° 0 mm 1 mps 705 mmHg 62%
13:00 +16°C° 0 mm 1 mps 704 mmHg 56%
14:00 +16°C° 0 mm 1 mps 704 mmHg 62%
15:00 +15°C° 0 mm 1 mps 703 mmHg 67%
16:00 +14°C° 0 mm 1 mps 703 mmHg 73%
17:00 +13°C° 0 mm 1 mps 703 mmHg 77%
18:00 +11°C° 0 mm 1 mps 703 mmHg 81%
19:00 +9°C° 0 mm 1 mps 703 mmHg 85%
20:00 +9°C° 0 mm 1 mps 703 mmHg 85%
21:00 +9°C° 0 mm 1 mps 703 mmHg 85%
22:00 +8°C° 0 mm 1 mps 702 mmHg 85%
23:00 +8°C° 0 mm 1 mps 702 mmHg 87%

Day after tomorrow, 26 October, Monday

Time Temperature Precipitation Wind Pressure Humidity
00:00 +8°C° 0 mm 1 mps 702 mmHg 88%
01:00 +8°C° 0 mm 1 mps 702 mmHg 90%
02:00 +8°C° 0.3 mm 1 mps 702 mmHg 91%
03:00 +8°C° 0.3 mm 1 mps 702 mmHg 93%
04:00 +8°C° 0.3 mm 1 mps 702 mmHg 94%
05:00 +8°C° 2.1 mm 1 mps 702 mmHg 95%
06:00 +8°C° 2.1 mm 1 mps 702 mmHg 96%
07:00 +7°C° 2.1 mm 1 mps 702 mmHg 97%
08:00 +6°C° 1.4 mm 2 mps 702 mmHg 96%
09:00 +6°C° 1.4 mm 2 mps 702 mmHg 95%
10:00 +6°C° 1.4 mm 2 mps 702 mmHg 94%
11:00 +6°C° 0.7 mm 2 mps 702 mmHg 94%
12:00 +7°C° 0.7 mm 2 mps 702 mmHg 93%
13:00 +8°C° 0.7 mm 1 mps 702 mmHg 92%
14:00 +8°C° 0.4 mm 1 mps 702 mmHg 92%
15:00 +8°C° 0.4 mm 1 mps 702 mmHg 92%
16:00 +8°C° 0.4 mm 1 mps 702 mmHg 92%
17:00 +7°C° 0.4 mm 1 mps 702 mmHg 93%
18:00 +7°C° 0.4 mm 1 mps 702 mmHg 94%
19:00 +7°C° 0.4 mm 1 mps 703 mmHg 95%
20:00 +7°C° 0.3 mm 1 mps 703 mmHg 95%
21:00 +6°C° 0.3 mm 1 mps 703 mmHg 95%
22:00 +5°C° 0.3 mm 2 mps 703 mmHg 95%
23:00 +6°C° 0.2 mm 1 mps 703 mmHg 94%

, 27 October, Tuesday

Time Temperature Precipitation Wind Pressure Humidity
00:00 +6°C° 0.2 mm 1 mps 704 mmHg 94%
01:00 +6°C° 0.2 mm 1 mps 704 mmHg 94%
02:00 +6°C° 0 mm 1 mps 704 mmHg 94%
03:00 +5°C° 0 mm 1 mps 704 mmHg 94%
04:00 +5°C° 0 mm 1 mps 703 mmHg 93%
05:00 +5°C° 0 mm 1 mps 703 mmHg 93%
06:00 +5°C° 0 mm 1 mps 704 mmHg 93%
07:00 +4°C° 0 mm 1 mps 704 mmHg 92%
08:00 +6°C° 0 mm 1 mps 704 mmHg 89%
09:00 +6°C° 0 mm 2 mps 704 mmHg 86%
10:00 +7°C° 0 mm 2 mps 705 mmHg 83%
11:00 +8°C° 0.1 mm 2 mps 705 mmHg 81%
12:00 +8°C° 0.1 mm 2 mps 705 mmHg 78%
13:00 +9°C° 0.1 mm 3 mps 705 mmHg 76%
14:00 +9°C° 0.1 mm 2 mps 705 mmHg 77%
15:00 +10°C° 0.1 mm 1 mps 705 mmHg 77%
16:00 +10°C° 0.1 mm 1 mps 705 mmHg 78%
17:00 +8°C° 0 mm 1 mps 705 mmHg 82%
18:00 +7°C° 0 mm 1 mps 705 mmHg 86%
19:00 +5°C° 0 mm 1 mps 705 mmHg 90%
20:00 +5°C° 0 mm 1 mps 706 mmHg 89%
21:00 +4°C° 0 mm 1 mps 706 mmHg 88%
22:00 +4°C° 0 mm 1 mps 706 mmHg 87%
23:00 +4°C° 0 mm 1 mps 706 mmHg 84%

27 October, Tuesday

Time Temperature Precipitation Wind Pressure Humidity
00:00 +6°C° 0.2 mm 1 mps 704 mmHg 94%
01:00 +6°C° 0.2 mm 1 mps 704 mmHg 94%
02:00 +6°C° 0 mm 1 mps 704 mmHg 94%
03:00 +5°C° 0 mm 1 mps 704 mmHg 94%
04:00 +5°C° 0 mm 1 mps 703 mmHg 93%
05:00 +5°C° 0 mm 1 mps 703 mmHg 93%
06:00 +5°C° 0 mm 1 mps 704 mmHg 93%
07:00 +4°C° 0 mm 1 mps 704 mmHg 92%
08:00 +6°C° 0 mm 1 mps 704 mmHg 89%
09:00 +6°C° 0 mm 2 mps 704 mmHg 86%
10:00 +7°C° 0 mm 2 mps 705 mmHg 83%
11:00 +8°C° 0.1 mm 2 mps 705 mmHg 81%
12:00 +8°C° 0.1 mm 2 mps 705 mmHg 78%
13:00 +9°C° 0.1 mm 3 mps 705 mmHg 76%
14:00 +9°C° 0.1 mm 2 mps 705 mmHg 77%
15:00 +10°C° 0.1 mm 1 mps 705 mmHg 77%
16:00 +10°C° 0.1 mm 1 mps 705 mmHg 78%
17:00 +8°C° 0 mm 1 mps 705 mmHg 82%
18:00 +7°C° 0 mm 1 mps 705 mmHg 86%
19:00 +5°C° 0 mm 1 mps 705 mmHg 90%
20:00 +5°C° 0 mm 1 mps 706 mmHg 89%
21:00 +4°C° 0 mm 1 mps 706 mmHg 88%
22:00 +4°C° 0 mm 1 mps 706 mmHg 87%
23:00 +4°C° 0 mm 1 mps 706 mmHg 84%

28 October, Wednesday

Time Temperature Precipitation Wind Pressure Humidity
00:00 +4°C° 0 mm 1 mps 706 mmHg 82%
01:00 +4°C° 0 mm 1 mps 705 mmHg 79%
02:00 +4°C° 0 mm 1 mps 705 mmHg 76%
03:00 +5°C° 0 mm 1 mps 705 mmHg 72%
04:00 +6°C° 0 mm 1 mps 706 mmHg 69%
05:00 +6°C° 0.1 mm 1 mps 706 mmHg 71%
06:00 +6°C° 0.1 mm 1 mps 706 mmHg 73%
07:00 +6°C° 0.1 mm 1 mps 706 mmHg 75%
08:00 +8°C° 0 mm 1 mps 706 mmHg 72%
09:00 +9°C° 0 mm 1 mps 706 mmHg 69%
10:00 +9°C° 0 mm 0 mps 706 mmHg 67%
11:00 +12°C° 0 mm 1 mps 706 mmHg 64%
12:00 +13°C° 0 mm 2 mps 707 mmHg 62%
13:00 +14°C° 0 mm 3 mps 707 mmHg 59%
14:00 +13°C° 0 mm 3 mps 707 mmHg 65%
15:00 +13°C° 0 mm 2 mps 707 mmHg 71%
16:00 +13°C° 0 mm 2 mps 707 mmHg 76%
17:00 +12°C° 0.1 mm 2 mps 707 mmHg 79%
18:00 +10°C° 0.1 mm 2 mps 707 mmHg 82%
19:00 +9°C° 0.1 mm 2 mps 708 mmHg 85%
20:00 +9°C° 0.2 mm 2 mps 708 mmHg 86%
21:00 +9°C° 0.2 mm 2 mps 708 mmHg 86%
22:00 +9°C° 0.2 mm 2 mps 708 mmHg 86%
23:00 +9°C° 0.2 mm 2 mps 708 mmHg 86%

29 October, Thursday

Time Temperature Precipitation Wind Pressure Humidity
00:00 +8°C° 0.2 mm 2 mps 708 mmHg 86%
01:00 +8°C° 0.2 mm 3 mps 708 mmHg 87%
02:00 +8°C° 0 mm 3 mps 709 mmHg 86%
03:00 +8°C° 0 mm 2 mps 709 mmHg 86%
04:00 +8°C° 0 mm 2 mps 709 mmHg 85%
05:00 +8°C° 0 mm 2 mps 709 mmHg 86%
06:00 +8°C° 0 mm 2 mps 709 mmHg 87%
07:00 +8°C° 0 mm 2 mps 710 mmHg 88%
08:00 +9°C° 0 mm 2 mps 710 mmHg 87%
09:00 +9°C° 0 mm 2 mps 711 mmHg 85%
10:00 +10°C° 0 mm 2 mps 711 mmHg 83%
11:00 +11°C° 0 mm 3 mps 711 mmHg 79%
12:00 +12°C° 0 mm 3 mps 711 mmHg 74%
13:00 +12°C° 0 mm 3 mps 711 mmHg 70%
14:00 +12°C° 0 mm 3 mps 711 mmHg 72%
15:00 +13°C° 0 mm 2 mps 711 mmHg 75%
16:00 +12°C° 0 mm 1 mps 711 mmHg 78%
17:00 +11°C° 0 mm 1 mps 712 mmHg 81%
18:00 +10°C° 0 mm 1 mps 712 mmHg 84%
19:00 +9°C° 0 mm 1 mps 713 mmHg 88%
20:00 +9°C° 0 mm 1 mps 713 mmHg 86%
21:00 +8°C° 0 mm 1 mps 713 mmHg 85%
22:00 +8°C° 0 mm 1 mps 713 mmHg 84%
23:00 +8°C° 0 mm 1 mps 713 mmHg 83%
Show more